This demonstration page uses our WeatherBlox Daily Observations layout. Learn more.

Left ArrowRight Arrow

39.01783, -85.05884

Hourly Observations for June 16, 2015

Temp ( °F °C ) Dew Point ( °F °C ) Humidity (%) Winds ( mph kmh ) Pressure ( in mb ) Visibility ( mi km ) Precip ( " mm )
12:52 am 00:52 Mostly Clear 79 26.1 67 19.4 67 67 SW 7 11 29.99 1016 10 16 N/A
1:52 am 01:52 Mostly Clear 78 25.6 68 20 71 71 SW 7 11 29.98 1015 10 16 N/A
2:52 am 02:52 Mostly Cloudy 79 26.1 68 20 69 69 SW 8 13 29.98 1015 10 16 N/A
3:52 am 03:52 Cloudy 76 24.4 69 20.6 79 79 W 10 17 29.98 1015 10 16 0.06 1.52
4:01 am 04:01 Cloudy with Light Thunderstorms 75 24 70 21 83 83 NW 13 20 30.00 1016 2 3 N/A
4:03 am 04:03 Cloudy with Light Thunderstorms 73 23 70 21 89 89 NW 8 13 30.00 1016 2 3 N/A
4:19 am 04:19 Mostly Cloudy with Light Rain 73 23 70 21 89 89 WSW 6 9 30.00 1016 5 8 0.17 4.32
4:52 am 04:52 Cloudy with Light Rain 73 22.8 71 21.7 94 94 WNW 3 6 30.00 1016 9 14 0.19 4.83
5:14 am 05:14 Cloudy with Light Rain 73 23 72 22 94 94 WNW 7 11 30.00 1016 9 14 N/A
5:42 am 05:42 Cloudy 73 23 72 22 94 94 WNW 5 7 30.03 1017 10 16 N/A
5:52 am 05:52 Mostly Cloudy 73 22.8 71 21.7 94 94 N N/A 30.01 1016 9 14 N/A
6:52 am 06:52 Cloudy with Mist and Fog 72 22.2 71 21.7 97 97 N N/A 30.02 1017 6 10 N/A
7:52 am 07:52 Mostly Cloudy 74 23.3 72 22.2 94 94 SSW 5 7 30.03 1017 8 13 N/A
8:52 am 08:52 Mostly Cloudy 76 24.4 72 22.2 88 88 WSW 7 11 30.04 1017 9 14 N/A
9:01 am 09:01 Cloudy 75 24 72 22 89 89 WSW 7 11 30.06 1018 8 13 N/A
9:33 am 09:33 Mostly Cloudy 77 25 72 22 83 83 W 7 11 30.06 1018 8 13 N/A
9:52 am 09:52 Cloudy 77 25 72 22.2 85 85 W 8 13 30.05 1018 10 16 N/A
10:31 am 10:31 Cloudy 81 27 72 22 74 74 W 13 20 30.06 1018 10 16 N/A
10:52 am 10:52 Mostly Cloudy 81 27.2 72 22.2 74 74 W 13 20 30.05 1018 10 16 N/A
11:52 am 11:52 Mostly Cloudy 83 28.3 70 21.1 65 65 WNW 15 24 30.06 1018 10 16 N/A
12:52 pm 12:52 Mostly Cloudy 82 27.8 70 21.1 67 67 W 15 24 30.07 1018 10 16 N/A
1:52 pm 13:52 Mostly Cloudy 86 30 70 21.1 59 59 W 16 26 30.05 1018 10 16 N/A
2:52 pm 14:52 Mostly Cloudy 84 28.9 71 21.7 65 65 N 13 20 30.03 1017 10 16 N/A
3:52 pm 15:52 Mostly Cloudy 83 28.3 69 20.6 63 63 WNW 10 17 30.03 1017 10 16 N/A
4:52 pm 16:52 Mostly Cloudy with Light Rain 79 26.1 72 22.2 79 79 WNW 7 11 30.03 1017 10 16 0.02 0.51
5:52 pm 17:52 Cloudy 79 26.1 72 22.2 79 79 WNW 6 9 30.04 1017 10 16 0.01 0.25
6:52 pm 18:52 Cloudy 80 26.7 72 22.2 76 76 VRB 3 6 30.03 1017 10 16 N/A
7:52 pm 19:52 Mostly Cloudy 79 26.1 72 22.2 79 79 SW 5 7 30.04 1017 10 16 N/A
8:52 pm 20:52 Mostly Cloudy 77 25 72 22.2 85 85 N N/A 30.04 1017 10 16 N/A
9:52 pm 21:52 Mostly Cloudy 76 24.4 72 22.2 88 88 SSW 5 7 30.06 1018 10 16 N/A
10:19 pm 22:19 Cloudy 75 24 73 23 94 94 NNW 5 7 30.09 1019 10 16 N/A
10:28 pm 22:28 Cloudy 75 24 73 23 94 94 VRB 5 7 30.09 1019 10 16 N/A
11:09 pm 23:09 Mostly Cloudy 75 24 73 23 94 94 SSW 6 9 30.09 1019 8 13 N/A
11:52 pm 23:52 Cloudy 74 23.3 72 22.2 94 94 SSW 5 7 30.07 1018 7 11 N/A

Powered by AerisWeather